Weather in Gorgan

Iran     36°38′36″N   54°57′29″E
temp.,
°C
wind,
m/s
gust,
m/s
humid.,
%
clouds,
%
prec.,
mm/h
press.,
hPa
HPBL,
m
11 april, sun
sun1101:30+14sse3340100 0.0 101535
04:30+13sse324098 0.0 101525
07:30+14sse3342100 0.0 101699
10:30+18se343374 0.0 10151041
13:30+20se143060 0.0 10141738
16:30+19ne253787 0.0 10131603
19:30+16ene2447100 0.1 1014470
22:30+14ese1256100 0.2 1015210
12 april, mon
mon1201:30+13nw2265100 0.2 1016172
04:30+11n117693 0.8 1016125
07:30+13ese016111 0.3 1016114
10:30+16n114711 0.4 10161138
13:30+17nnw434733 1.0 10151063
16:30+17nnw334543 1.8 10151147
19:30+13nnw346694 0.1 1018323
22:30+12w016862 0.1 101895
13 april, tue
tue1301:30+13sse114171 0.0 101713
04:30+12sse223646 0.0 101713
07:30+14s11354 0.0 101830
10:30+18ene12265 0.0 10171222
13:30+19nne1229100 0.0 10152186
16:30+14n3357100 0.9 1016366
19:30+12w0155100 3.8 101686
22:30+13sse2249100 3.8 101732
14 april, wed
wed1401:30+12s11491 0.0 101511
04:30+11sse115041 0.0 101512
07:30+12s33510 0.0 101565
10:30+17se22330 0.0 10141002
13:30+19ne123177 0.0 10122227
16:30+15nnw5554100 1.5 1014674
19:30+10nnw337369 3.6 1015180
22:30+9nw238892 3.7 1017130
15 april, thu
thu1501:30+9nnw228631 0.0 1016105
04:30+7nnw229131 0.1 101744
07:30+8nw128517 0.0 1018134
10:30+12n32646 0.1 1017652
13:30+14nnw425833 0.4 10161036
16:30+12nnw436555 1.4 1016683
19:30+9nnw338015 0.5 1017297
22:30+8nw23790 0.5 1018133